TREK05 RPVA-RPUO

Flight info

Callsign TREK05
Flight time N/A
Altitude 28000
Route MALAG5R MALAG W9 NGA W9B JOM TR27 RAYAT/N0338F210 TR23 CAB/N0334F280 B462 LAO M646 KAPOH
Aircraft C130/M-SDE2E3FGRY/H

Departure

Time 2026-05-04 03:58
Airport Daniel Z. Romualdez Airport (RPVA)

Arrival

Time N/A
Airport Basco Airport (RPUO)
Time Latitude Longitude Altitude Speed Heading
2026-05-04 03:51 11.22729 125.02659 17 ft 0 kts 308°
2026-05-04 03:53 11.22728 125.02651 17 ft 4 kts 229°
2026-05-04 03:53 11.22709 125.02672 19 ft 11 kts 116°
2026-05-04 03:54 11.22676 125.02689 18 ft 9 kts 185°
2026-05-04 03:54 11.22587 125.02690 19 ft 14 kts 153°
2026-05-04 03:54 11.22557 125.02751 19 ft 8 kts 141°
2026-05-04 03:54 11.22450 125.02754 20 ft 22 kts 180°
2026-05-04 03:55 11.22255 125.02745 19 ft 34 kts 188°
2026-05-04 03:55 11.22048 125.02728 20 ft 28 kts 182°
2026-05-04 03:55 11.21882 125.02716 18 ft 14 kts 181°
2026-05-04 03:55 11.21833 125.02745 17 ft 7 kts 180°
2026-05-04 03:56 11.21806 125.02734 17 ft 3 kts 234°
2026-05-04 03:56 11.21803 125.02722 17 ft 1 kts 271°
2026-05-04 03:56 11.21803 125.02715 18 ft 2 kts 275°
2026-05-04 03:56 11.21810 125.02704 18 ft 5 kts 326°
2026-05-04 03:57 11.21942 125.02718 20 ft 36 kts
2026-05-04 03:57 11.22408 125.02750 20 ft 97 kts
2026-05-04 03:57 11.22947 125.02785 59 ft 127 kts
2026-05-04 03:57 11.23884 125.02824 384 ft 144 kts
2026-05-04 03:58 11.26378 125.03020 603 ft 217 kts
2026-05-04 03:58 11.28515 125.03164 993 ft 245 kts
2026-05-04 03:58 11.29693 125.03229 1327 ft 255 kts
2026-05-04 03:59 11.31974 125.02452 2003 ft 272 kts 330°
2026-05-04 03:59 11.33059 125.01749 2505 ft 275 kts 328°
2026-05-04 03:59 11.34611 125.00608 3224 ft 275 kts 324°
2026-05-04 03:59 11.36089 124.99422 3884 ft 276 kts 322°
2026-05-04 04:00 11.38071 124.97735 4779 ft 277 kts 320°
2026-05-04 04:00 11.39528 124.96438 5442 ft 278 kts 320°
2026-05-04 04:00 11.40506 124.95552 5878 ft 279 kts 320°
2026-05-04 04:00 11.41955 124.94228 6520 ft 282 kts 319°
2026-05-04 04:01 11.43412 124.92876 7081 ft 285 kts 319°
2026-05-04 04:01 11.44883 124.91508 7680 ft 288 kts 319°
2026-05-04 04:01 11.46350 124.90142 8280 ft 291 kts 319°
2026-05-04 04:01 11.47849 124.88743 8900 ft 293 kts 319°
2026-05-04 04:02 11.49362 124.87334 9536 ft 296 kts 319°
2026-05-04 04:02 11.50883 124.85914 10158 ft 298 kts 319°
2026-05-04 04:02 11.52414 124.84475 10740 ft 300 kts 319°
2026-05-04 04:02 11.53955 124.83028 11348 ft 302 kts 319°
2026-05-04 04:03 11.55511 124.81586 12002 ft 303 kts 321°
2026-05-04 04:03 11.57154 124.80242 12649 ft 304 kts 325°
2026-05-04 04:03 11.58851 124.78949 13292 ft 305 kts 326°
2026-05-04 04:03 11.60581 124.77681 13921 ft 307 kts 327°
2026-05-04 04:04 11.62333 124.76434 14503 ft 307 kts 328°
2026-05-04 04:04 11.64099 124.75199 15103 ft 308 kts 328°
2026-05-04 04:04 11.65873 124.73980 15706 ft 308 kts 329°
2026-05-04 04:04 11.67653 124.72768 16289 ft 308 kts 329°
2026-05-04 04:05 11.69433 124.71560 16894 ft 307 kts 329°
2026-05-04 04:05 11.71213 124.70357 17495 ft 306 kts 329°
2026-05-04 04:05 11.72985 124.69155 18107 ft 306 kts 328°
2026-05-04 04:05 11.74753 124.67955 18638 ft 306 kts 328°
2026-05-04 04:06 11.76527 124.66755 19152 ft 306 kts 328°
2026-05-04 04:06 11.78301 124.65558 19679 ft 306 kts 328°
2026-05-04 04:06 11.80073 124.64363 20199 ft 305 kts 328°
2026-05-04 04:06 11.81841 124.63172 20721 ft 304 kts 328°
2026-05-04 04:07 11.83610 124.61981 21233 ft 304 kts 328°
2026-05-04 04:07 11.85370 124.60796 21747 ft 303 kts 328°
2026-05-04 04:07 11.87125 124.59614 22249 ft 302 kts 328°
2026-05-04 04:07 11.88877 124.58433 22747 ft 301 kts 328°
2026-05-04 04:08 11.90619 124.57258 23239 ft 300 kts 328°
2026-05-04 04:08 11.92362 124.56082 23681 ft 299 kts 328°
2026-05-04 04:08 11.94097 124.54911 24071 ft 299 kts 328°
2026-05-04 04:08 11.95831 124.53741 24449 ft 298 kts 327°
2026-05-04 04:09 11.97560 124.52575 24831 ft 298 kts 327°
2026-05-04 04:09 11.99286 124.51409 25204 ft 297 kts 328°
2026-05-04 04:09 12.01007 124.50249 25571 ft 297 kts 327°
2026-05-04 04:09 12.02733 124.49086 25932 ft 296 kts 327°
2026-05-04 04:10 12.04451 124.47927 26293 ft 296 kts 327°
2026-05-04 04:10 12.06167 124.46766 26649 ft 296 kts 327°
2026-05-04 04:10 12.07882 124.45608 26993 ft 295 kts 327°
2026-05-04 04:10 12.09594 124.44449 27332 ft 295 kts 327°
2026-05-04 04:11 12.11307 124.43290 27666 ft 295 kts 327°
2026-05-04 04:11 12.13020 124.42130 27976 ft 296 kts 327°
2026-05-04 04:11 12.14807 124.40925 27491 ft 325 kts 328°
2026-05-04 04:11 12.16834 124.39596 26487 ft 366 kts 328°
2026-05-04 04:12 12.18999 124.38147 26636 ft 365 kts 327°
2026-05-04 04:12 12.21065 124.36743 27301 ft 350 kts 327°
2026-05-04 04:12 12.23056 124.35380 27851 ft 339 kts 327°
2026-05-04 04:12 12.24971 124.34068 28178 ft 337 kts 327°
2026-05-04 04:13 12.26973 124.32700 28045 ft 348 kts 327°
2026-05-04 04:13 12.29009 124.31312 27862 ft 360 kts 327°
2026-05-04 04:13 12.31108 124.29883 27878 ft 365 kts 327°
2026-05-04 04:13 12.33226 124.28443 27885 ft 369 kts 327°
2026-05-04 04:14 12.35355 124.26951 27888 ft 372 kts 326°
2026-05-04 04:14 12.37469 124.25394 27898 ft 375 kts 324°
2026-05-04 04:14 12.39580 124.23806 27901 ft 378 kts 324°
2026-05-04 04:14 12.41692 124.22195 27911 ft 380 kts 324°
2026-05-04 04:15 12.43816 124.20558 27858 ft 384 kts 324°
2026-05-04 04:15 12.45947 124.18911 27866 ft 385 kts 323°
2026-05-04 04:15 12.48098 124.17241 27724 ft 390 kts 323°
2026-05-04 04:15 12.50267 124.15555 27692 ft 392 kts 323°
2026-05-04 04:16 12.52426 124.13867 27777 ft 390 kts 323°
2026-05-04 04:16 12.54575 124.12185 27896 ft 387 kts 323°
2026-05-04 04:16 12.56708 124.10516 27956 ft 387 kts 323°
2026-05-04 04:16 12.58853 124.08844 27957 ft 388 kts 323°
2026-05-04 04:17 12.61006 124.07166 27957 ft 389 kts 323°
2026-05-04 04:17 12.63159 124.05486 27957 ft 390 kts 323°
2026-05-04 04:17 12.65317 124.03799 27959 ft 391 kts 323°
2026-05-04 04:17 12.67480 124.02108 27961 ft 391 kts 323°
2026-05-04 04:18 12.69642 124.00418 27961 ft 392 kts 323°
2026-05-04 04:18 12.71810 123.98719 27960 ft 392 kts 323°
2026-05-04 04:18 12.73979 123.97021 27962 ft 393 kts 323°
2026-05-04 04:18 12.76147 123.95326 27959 ft 393 kts 323°
2026-05-04 04:19 12.78321 123.93623 27962 ft 393 kts 323°
2026-05-04 04:19 12.80466 123.91944 27964 ft 393 kts 323°
2026-05-04 04:19 12.82637 123.90243 27965 ft 393 kts 323°
2026-05-04 04:19 12.84840 123.88515 27967 ft 393 kts 323°
2026-05-04 04:20 12.86983 123.86835 27965 ft 393 kts 323°
2026-05-04 04:20 12.89152 123.85135 27963 ft 393 kts 323°
2026-05-04 04:20 12.91322 123.83433 27965 ft 393 kts 323°
2026-05-04 04:20 12.93496 123.81729 27966 ft 393 kts 323°
2026-05-04 04:21 12.95665 123.80028 27963 ft 393 kts 322°
2026-05-04 04:21 12.97835 123.78326 27968 ft 393 kts 322°
2026-05-04 04:21 13.00032 123.76598 27971 ft 393 kts 322°
2026-05-04 04:21 13.02197 123.74896 27966 ft 392 kts 322°
2026-05-04 04:22 13.04335 123.73216 27965 ft 392 kts 322°
2026-05-04 04:22 13.06498 123.71515 27966 ft 392 kts 322°
2026-05-04 04:22 13.08659 123.69811 27964 ft 392 kts 322°
2026-05-04 04:22 13.10788 123.68065 27965 ft 391 kts 321°
2026-05-04 04:23 13.12893 123.66298 27963 ft 391 kts 320°
2026-05-04 04:23 13.14989 123.64515 27962 ft 391 kts 320°
2026-05-04 04:23 13.17073 123.62727 27964 ft 391 kts 320°
2026-05-04 04:23 13.19157 123.60931 27963 ft 391 kts 320°
2026-05-04 04:24 13.21234 123.59136 27962 ft 390 kts 320°
2026-05-04 04:24 13.23310 123.57338 27965 ft 390 kts 320°
2026-05-04 04:24 13.25382 123.55541 27966 ft 390 kts 320°
2026-05-04 04:24 13.27455 123.53740 27965 ft 390 kts 320°
2026-05-04 04:25 13.29524 123.51943 27966 ft 390 kts 320°
2026-05-04 04:25 13.31594 123.50143 27963 ft 390 kts 320°
2026-05-04 04:25 13.33666 123.48343 27964 ft 390 kts 320°
2026-05-04 04:25 13.35734 123.46545 27964 ft 390 kts 320°
2026-05-04 04:26 13.37802 123.44747 27961 ft 390 kts 320°
2026-05-04 04:26 13.39868 123.42948 27964 ft 389 kts 320°
2026-05-04 04:26 13.41934 123.41151 27967 ft 389 kts 320°
2026-05-04 04:26 13.44001 123.39353 27962 ft 389 kts 320°
2026-05-04 04:27 13.46067 123.37557 27962 ft 389 kts 320°
2026-05-04 04:27 13.48128 123.35762 27962 ft 389 kts 320°
2026-05-04 04:27 13.50192 123.33961 27964 ft 389 kts 320°
2026-05-04 04:27 13.52255 123.32163 27964 ft 389 kts 320°
2026-05-04 04:28 13.54315 123.30367 27962 ft 389 kts 319°
2026-05-04 04:28 13.56386 123.28575 27963 ft 389 kts 320°
2026-05-04 04:28 13.58468 123.26805 27964 ft 389 kts 320°
2026-05-04 04:28 13.60558 123.25046 27965 ft 389 kts 321°
2026-05-04 04:29 13.62654 123.23289 27963 ft 389 kts 321°
2026-05-04 04:29 13.64754 123.21537 27965 ft 389 kts 321°
2026-05-04 04:29 13.66856 123.19785 27963 ft 389 kts 321°
2026-05-04 04:29 13.68957 123.18037 27964 ft 389 kts 321°
2026-05-04 04:30 13.71056 123.16290 27966 ft 389 kts 321°
2026-05-04 04:30 13.73160 123.14537 27966 ft 389 kts 321°
2026-05-04 04:30 13.75258 123.12788 27965 ft 389 kts 321°
2026-05-04 04:30 13.77359 123.11039 27966 ft 388 kts 321°
2026-05-04 04:31 13.78040 123.10471 27964 ft 388 kts 321°